Home > Weather > Jaén > Past weeks

Flag for Spain Weather for the Past 2 Weeks in Jaén, Spain

Now
61 °F

Cool.


Feels Like: 61 °F
Forecast: 55 / 58 °F
Wind: 8 mph from Northwest

Location: Malaga / Aeropuerto

Current Time: Feb 12, 2016 at 3:19:18 AM

Latest Report: Feb 12, 2016 at 2:00 AM


Visibility: N/A

Pressure: 30.14 "Hg (28.20 "Hg at 565m altitude)

Humidity: 70%

Dew point: 51 °F

Location of JaénLocation

Historic Weather in Jaén — Graph

°F

Jaén Temperature Yesterday

Maximum temperature yesterday: 73 °F (at 3:00 PM)
Minimum temperature yesterday: 60 °F (at 5:00 AM)
Average temperature yesterday: 65 °F

High & Low Weather Summary for the Past Weeks

 TemperatureHumidityPressure
High73 °F (Feb 11, 3:00 PM)95% (Jan 30, 3:00 AM)30.56 "Hg (Jan 30, 3:00 AM)
Low44 °F (Jan 28, 7:00 AM)36% (Jan 31, 3:00 PM)30.04 "Hg (Feb 11, 4:00 PM)
Average59 °F70%30.35 "Hg
* Reported Jan 27 10:00 PM — Feb 11 10:00 PM, Jaén, Weather by CustomWeather, © 2016

Note: Actual official high and low records may vary slightly from our data, if they occured in-between our weather recording intervals... More about our weather records

Advertising

Jaén Weather History for the Previous 24 Hours

 ConditionsComfort  
Time TempWeatherWind HumidityBarometerVisibility
10:00 PM
Thu, Feb 11
62 °FPassing clouds.2 mph71%30.14 "Hg12 mi
9:00 PM65 °FMild.No wind68%30.12 "HgN/A
8:00 PM67 °FMild.6 mph60%30.11 "HgN/A
7:00 PM68 °FPassing clouds.8 mph61%30.08 "Hg19 mi
6:00 PM69 °FMild.5 mph58%30.07 "HgN/A
5:00 PM71 °FMild.12 mph53%30.06 "HgN/A
4:00 PM71 °FPartly sunny.10 mph53%30.04 "Hg19 mi
3:00 PM73 °FMild.10 mph52%30.05 "HgN/A
2:00 PM71 °FMild.13 mph55%30.08 "HgN/A
1:00 PM71 °FPartly sunny.8 mph61%30.10 "Hg16 mi
12:00 PM69 °FMild.7 mph69%30.12 "HgN/A
11:00 AM65 °FMild.6 mph85%30.11 "HgN/A
10:00 AM61 °FPartly sunny.2 mph92%30.10 "Hg12 mi
9:00 AM60 °FFog.6 mph92%30.10 "HgN/A
8:00 AM60 °FFog.1 mph90%30.09 "HgN/A
7:00 AM60 °FLight rain. Overcast.1 mph86%30.09 "Hg7 mi
5:00 AM60 °FCool.1 mph85%30.07 "HgN/A
4:00 AM60 °FOvercast.1 mph81%30.08 "Hg9 mi
3:00 AM61 °FCool.1 mph78%30.10 "HgN/A
Weather by CustomWeather, © 2016

See weather overviewHow to use our weather pages